Location: Grisols
(45.0093°N, 3.1167°E)
Time: 07:12:55
(UTC+00:00)

CZ-2C R/B - Pass Details

Date: 21 October 2019
Orbit: 703 x 909 km, 98.1° (Epoch: 18 November)

Event Time Altitude Azimuth Distance (km) Brightness Sun altitude
Exits shadow 19:38:10 32° 12° (NNE) 1,500 4.4 -29.7°
Drops below altitude 10° 19:41:20 10° 356° (N) 2,572 5.9 -30.2°
Sets 19:43:46 0° 352° (N) 3,496 6.7 -30.7°
